Location: Sternwarte-Kraichtal
(49.1689°N, 8.6996°E)
Time: 20:24:49
(UTC+02:00)

Vanguard 2 Rocket - Pass Details

Date: 26 May 2022
Orbit: 553 x 3323 km, 32.9° (Epoch: 02 July)

Event Time Altitude Azimuth Distance (km) Brightness Sun altitude
Rises 11:51:14 0° 188° (S) 7,187 11.8 56.7°
Reaches altitude 10° 11:59:16 10° 170° (S) 6,273 11.8 57.5°
Maximum altitude 12:09:00 16° 140° (SE) 5,613 11.8 58.4°
Drops below altitude 10° 12:17:53 10° 110° (ESE) 5,715 11.5 59.2°
Sets 12:24:23 0° 92° (E) 6,275 11.4 59.7°
